This demonstration page uses our WeatherBlox Daily Observations layout. Learn more.

Left ArrowRight Arrow

Hourly Observations for January 22, 2017

Temp ( °F °C ) Dew Point ( °F °C ) Humidity (%) Winds ( mph kmh ) Pressure ( in mb ) Visibility ( mi km ) Precip ( " mm )
12:14 am 00:14 Cloudy with Fog 48 9 48 9 100 100 Calm 29.77 1008 0.5 0.80467 0 0
12:34 am 00:34 Cloudy with Fog 48 9 48 9 100 100 Calm 29.74 1007 0.5 0.80467 0 0
12:54 am 00:54 Cloudy with Fog 48 9 48 9 100 100 Calm 29.74 1007 0.25 0.402335 0 0
1:14 am 01:14 Cloudy with Fog 48 9 48 9 100 100 Calm 29.74 1007 0.5 0.80467 0 0
1:34 am 01:34 Cloudy with Fog 48 9 48 9 100 100 NE 3 6 29.74 1007 0.25 0.402335 0 0
1:54 am 01:54 Cloudy with Fog 48 9 48 9 100 100 NNE 5 7 29.74 1007 0.25 0.402335 0 0
2:14 am 02:14 Cloudy with Fog 48 9 48 9 100 100 NNE 3 6 29.74 1007 0.25 0.402335 0 0
2:34 am 02:34 Cloudy with Fog 48 9 48 9 100 100 NNE 7 11 29.74 1007 0.5 0.80467 0 0
2:54 am 02:54 Cloudy with Fog 48 9 48 9 100 100 NNE 6 9 29.71 1006 0.5 0.80467 0 0
3:14 am 03:14 Cloudy with Fog 48 9 48 9 100 100 NNE 3 6 29.71 1006 0.5 0.80467 0 0
3:34 am 03:34 Cloudy with Fog 48 9 48 9 100 100 Calm 29.71 1006 0.5 0.80467 0 0
3:54 am 03:54 Cloudy with Fog 48 9 48 9 100 100 NE 5 7 29.71 1006 0.5 0.80467 0 0
4:14 am 04:14 Cloudy with Fog 48 9 48 9 100 100 NNE 3 6 29.71 1006 0.5 0.80467 0 0
4:34 am 04:34 Cloudy with Mist and Fog 48 9 48 9 100 100 Calm 29.71 1006 0.75 1.207005 0 0
4:54 am 04:54 Cloudy with Mist and Fog 48 9 48 9 100 100 NNE 3 6 29.71 1006 0.75 1.207005 0 0
5:14 am 05:14 Cloudy with Mist and Fog 48 9 48 9 100 100 Calm 29.71 1006 0.75 1.207005 0 0
5:34 am 05:34 Cloudy with Mist and Fog 48 9 48 9 100 100 NNE 5 7 29.71 1006 2 3.21868 0 0
5:54 am 05:54 Cloudy with Mist and Fog 48 9 48 9 100 100 NE 3 6 29.68 1005 1.75 2.816345 0 0
6:14 am 06:14 Cloudy with Mist and Fog 48 9 48 9 100 100 NE 5 7 29.68 1005 3 4.82802 0 0
6:34 am 06:34 Cloudy with Mist and Fog 48 9 48 9 100 100 NNE 5 7 29.68 1005 4 6.43736 0 0
6:54 am 06:54 Cloudy 46 8 46 8 100 100 Calm 29.71 1006 7 11.26538 0 0
7:14 am 07:14 Cloudy with Mist and Fog 46 8 46 8 100 100 N 3 6 29.71 1006 4 6.43736 0 0
7:34 am 07:34 Cloudy with Mist and Fog 46 8 46 8 100 100 N 5 7 29.71 1006 3 4.82802 0 0
7:54 am 07:54 Cloudy with Mist and Fog 46 8 46 8 100 100 N 6 9 29.71 1006 2 3.21868 0 0
8:14 am 08:14 Cloudy with Mist and Fog 46 8 46 8 100 100 NNW 6 9 29.74 1007 2 3.21868 0 0
8:34 am 08:34 Cloudy with Mist and Fog 46 8 46 8 100 100 N 7 11 29.71 1006 1.5 2.41401 0 0
8:54 am 08:54 Cloudy with Mist and Fog 46 8 46 8 100 100 N 5 7 29.71 1006 1.25 2.011675 0 0
9:14 am 09:14 Cloudy with Mist and Fog 46 8 46 8 100 100 Calm 29.74 1007 1.5 2.41401 0 0
9:34 am 09:34 Cloudy with Mist and Fog 48 9 48 9 100 100 Calm 29.74 1007 1.5 2.41401 0 0
9:54 am 09:54 Cloudy with Mist and Fog 48 9 48 9 100 100 N 3 6 29.74 1007 1.5 2.41401 0 0
10:14 am 10:14 Cloudy with Mist and Fog 48 9 48 9 100 100 N 5 7 29.74 1007 2 3.21868 0 0
10:34 am 10:34 Cloudy with Mist and Fog 48 9 48 9 100 100 N 5 7 29.74 1007 2.5 4.02335 0 0
10:54 am 10:54 Cloudy with Mist and Fog 48 9 48 9 100 100 NNE 5 7 29.74 1007 3 4.82802 0 0
11:14 am 11:14 Cloudy with Mist and Fog 48 9 48 9 100 100 NNE 6 9 29.71 1006 5 8.0467 0 0
11:34 am 11:34 Cloudy with Mist and Fog 48 9 48 9 100 100 NNE 9 15 29.68 1005 5 8.0467 0 0
11:54 am 11:54 Cloudy 48 9 48 9 100 100 N 7 11 29.68 1005 7 11.26538 0 0
12:34 pm 12:34 Cloudy 48 9 48 9 100 100 N 6 9 29.65 1004 7 11.26538 0 0
12:54 pm 12:54 Cloudy 48 9 48 9 100 100 N 7 11 29.65 1004 7 11.26538 0 0
1:14 pm 13:14 Cloudy with Mist and Fog 48 9 48 9 100 100 NE 8 13 29.59 1002 5 8.0467 0 0
1:34 pm 13:34 Cloudy with Mist and Fog 48 9 48 9 100 100 NNE 5 7 29.62 1003 5 8.0467 0 0
1:54 pm 13:54 Cloudy with Mist and Fog 48 9 48 9 100 100 NNW 7 11 29.65 1004 5 8.0467 0 0
2:16 pm 14:16 Cloudy with Mist and Fog 50 10 50 10 100 100 NW 9 15 29.65 1004 5 8.0467 0 0
2:34 pm 14:34 Cloudy with Mist and Fog 50 10 50 10 100 100 NW 8 13 29.65 1004 5 8.0467 0 0
2:54 pm 14:54 Cloudy 50 10 50 10 100 100 N 7 11 29.65 1004 7 11.26538 0 0
3:16 pm 15:16 Cloudy 50 10 50 10 100 100 NNE 7 11 29.65 1004 7 11.26538 0 0
3:34 pm 15:34 Cloudy 52 11 52 11 100 100 NE 7 11 29.62 1003 7 11.26538 0 0
3:55 pm 15:55 Cloudy 52 11 52 11 100 100 NE 9 15 29.62 1003 7 11.26538 0 0
4:14 pm 16:14 Cloudy 52 11 52 11 100 100 NNE 5 7 29.62 1003 10 16.0934 0 0
4:34 pm 16:34 Cloudy 52 11 50 10 94 94 NE 5 7 29.62 1003 7 11.26538 0 0
4:54 pm 16:54 Cloudy with Drizzle 50 10 50 10 100 100 NNE 6 9 29.62 1003 7 11.26538 0 0
5:14 pm 17:14 Cloudy 50 10 50 10 100 100 NNE 3 6 29.65 1004 7 11.26538 0 0
5:34 pm 17:34 Cloudy with Light Rain 50 10 50 10 100 100 NNE 3 6 29.65 1004 7 11.26538 0 0
5:54 pm 17:54 Cloudy 50 10 50 10 100 100 N 5 7 29.65 1004 7 11.26538 0 0
6:14 pm 18:14 Cloudy 50 10 50 10 100 100 N 6 9 29.65 1004 7 11.26538 0 0
6:34 pm 18:34 Cloudy with Light Rain 50 10 50 10 100 100 NNE 6 9 29.65 1004 7 11.26538 0 0
6:54 pm 18:54 Cloudy with Drizzle 50 10 50 10 100 100 N 6 9 29.65 1004 7 11.26538 0 0
7:14 pm 19:14 Cloudy with Mist and Fog 50 10 50 10 100 100 NNE 6 9 29.65 1004 5 8.0467 0 0
7:36 pm 19:36 Cloudy with Light Rain 48 9 48 9 100 100 N 8 13 29.65 1004 5 8.0467 0 0
7:54 pm 19:54 Cloudy with Rain 48 9 48 9 100 100 N 9 15 29.65 1004 3 4.82802 0 0
8:14 pm 20:14 Cloudy with Rain 48 9 48 9 100 100 NNE 7 11 29.65 1004 2.5 4.02335 0 0
8:34 pm 20:34 Cloudy with Rain 48 9 48 9 100 100 N 9 15 29.62 1003 2 3.21868 0 0
8:54 pm 20:54 Cloudy with Rain 48 9 48 9 100 100 NNE 8 13 29.62 1003 2 3.21868 0 0
9:14 pm 21:14 Cloudy with Drizzle 48 9 48 9 100 100 NNE 7 11 29.62 1003 2.5 4.02335 0 0
9:34 pm 21:34 Cloudy with Light Rain 48 9 48 9 100 100 NNE 7 11 29.62 1003 3 4.82802 0 0
9:54 pm 21:54 Cloudy with Drizzle 48 9 48 9 100 100 NNE 7 11 29.62 1003 2 3.21868 0 0
10:14 pm 22:14 Cloudy with Light Rain 48 9 48 9 100 100 NNE 5 7 29.62 1003 2 3.21868 0 0
10:34 pm 22:34 Cloudy with Drizzle 48 9 48 9 100 100 NNE 3 6 29.65 1004 2 3.21868 0 0
10:54 pm 22:54 Cloudy with Rain 48 9 48 9 100 100 NE 5 7 29.65 1004 2.5 4.02335 0 0
11:14 pm 23:14 Cloudy with Light Rain 50 10 50 10 100 100 NNE 8 13 29.62 1003 2.5 4.02335 0 0
11:34 pm 23:34 Cloudy with Light Rain 50 10 50 10 100 100 NE 5 7 29.65 1004 4 6.43736 0 0
11:54 pm 23:54 Cloudy with Drizzle 52 11 52 11 100 100 NE 10 17 29.62 1003 5 8.0467 0 0

Powered by AerisWeather